Tracking 35275 objects as of 9-Sep-2026
HD Live streaming from Space Station
objects crossing your sky now

BREEZE-M DEB


BREEZE-M DEB is no longer on orbit


NORAD ID: 36975
Int'l Code: 2009-042CH
Launch date: August 11, 2009
Source: Commonwealth of Independent States (former USSR) (CIS)
Launch site: TYURATAM MISSILE AND SPACE COMPLEX (TTMTR)
Decay date: 2010-10-11

Note: This is SATELLITE DEBRIS
Your satellite tracking list
Your tracking list is empty




NASA's NSSDC Master Catalog

Two Line Element Set (TLE):
1 36975U 09042CH  10281.61972797  .12729756  61027-1  25000+0 0  9997
2 36975 047.4933 142.5499 0591381 134.4754 098.4212 14.53766098  7216
Source of the keplerian elements: AFSPC